{"data":{"norad_id":65376,"epoch":"2026-09-20T11:35:18.660768Z","epoch_age_seconds":116315,"freshness":"FRESH","line1":"1 65376U 25190AB  26263.48285487  .00018861  00000+0  56778-3 0  9998","line2":"2 65376  53.1610 339.4929 0001203  98.2122 261.9018 15.34408602 60055","mean_motion":15.34408602,"eccentricity":0.0001203,"inclination_deg":53.161,"raan_deg":339.4929,"arg_perigee_deg":98.2122,"mean_anomaly_deg":261.9018,"bstar":0.00056778,"rev_number":6005,"period_min":93.847231964358,"perigee_km":461.85472336455,"apogee_km":463.50062337496,"semimajor_km":6840.8146733698,"source":"CELESTRAK","updated_at":"2026-09-21T09:00:35.596060Z"}}